Regional Weather Roundup
Issued by NWS

Home | Current Version | Previous Version | Graphics & Text | Print | Product List | Glossary On
Versions: 1 2 3 4 5 6 7 8 9 10 11 12 13 14 15 16 17 18 19 20 21 22 23 24 25 26 27 28
000
ASUS45 KCYS 301710
RWRWY

WYOMING REGIONAL WEATHER ROUNDUP
NATIONAL WEATHER SERVICE CHEYENNE WY
1100 AM MDT MON MAY 30 2016

NOTE:  "FAIR" INDICATES FEW OR NO CLOUDS BELOW 12,000 FEET
WITH NO SIGNIFICANT WEATHER AND/OR OBSTRUCTIONS TO VISIBILITY.

WYZ001-301800-
YELLOWSTONE NATIONAL PARK

CITY           SKY/WX    TMP DP  RH WIND       PRES   REMARKS
LK YELLOWSTONE   N/A     47  35  63 NW6       30.18R
W YELLOWSTONE  NOT AVBL

$$
WYZ002>013-054>058-071-098>099-301800-
NORTHERN WYOMING

CITY           SKY/WX    TMP DP  RH WIND       PRES   REMARKS
JACKSON        PTSUNNY   57  30  35 S5G21     30.13S
CODY           FAIR      61  46  59 NE13      30.03S
GREYBULL       FAIR      69  40  34 NW14G22   29.96F
WORLAND        FAIR      67  41  38 N6        29.99F
SHERIDAN       FAIR      60  45  57 CALM      30.02S
BUFFALO        PTSUNNY   56  44  64 N13G26    30.05R
GILLETTE       CLOUDY    56  47  71 N16       30.00R
HULETT         CLOUDY    61  50  67 NW9       29.98R
NEWCASTLE      FAIR      70  36  28 CALM      29.93F

$$
WYZ014>020-022>026-101>103-301800-
CENTRAL WYOMING

CITY           SKY/WX    TMP DP  RH WIND       PRES   REMARKS
BIG PINEY      FAIR      60  36  40 NW15G21   30.17F
PINEDALE       PTSUNNY   52  41  66 W3        30.18F
DUBOIS         FAIR      57  23  26 MISG      30.10F
LANDER         FAIR      66  40  38 E8        30.03F
RIVERTON       FAIR      66  37  34 VRB7      30.05F
CASPER         CLOUDY    63  40  42 W12       30.04R
DOUGLAS          N/A    N/A N/A N/A MISG      30.01R

$$
WYZ021-027>030-104>119-301800-
SOUTHERN WYOMING

CITY           SKY/WX    TMP DP  RH WIND       PRES   REMARKS
EVANSTON       FAIR      60  41  49 SW10      30.20F
KEMMERER         N/A     57  37  47 W15       30.20S
FORT BRIDGER   MOSUNNY   63  41  45 NW10      30.22S
ROCK SPRINGS   FAIR      59  37  44 NW13G22   30.16F
DIXON          PTSUNNY   60  41  50 CALM      30.19F
RAWLINS        FAIR      60  38  43 W17G26    30.14F
SARATOGA       CLOUDY    57  36  44 W13G23    30.17S
LARAMIE        FAIR      62  39  42 VRB7      30.12F
CHEYENNE       FAIR      70  37  29 N10       30.05F
TORRINGTON     FAIR      73  43  33 W8        29.96F
PINE BLUFFS    FAIR      72  39  30 NW3       30.02F

$$




USA.gov is the U.S. government's official web portal to all federal, state and local government web resources and services.